G4GJR Weather Reports


time (UTC)temp
C
wind
direction
speed
KPH
gust
KPH
rain 1hr
cm
rain 24hr
cm
rain mn
cm
humidity
%
barometer
mb
20260506124505 11 33 8.0 14.5 0.00 0.00 0.00 68 1014.7
20260506123004 10 35 3.2 16.1 0.00 0.00 0.00 72 1014.6
20260506120004 10 17 4.8 12.9 0.00 0.00 0.00 76 1014.8
20260506114503 10 14 6.4 14.5 0.00 0.00 0.00 76 1014.8
20260506113005 10 81 3.2 14.5 0.00 0.00 0.00 73 1014.8
20260506111504 10 53 4.8 12.9 0.00 0.00 0.00 72 1014.8
20260506110004 10 48 6.4 16.1 0.00 0.00 0.00 74 1014.9
20260506104504 9 34 6.4 12.9 0.00 0.00 0.00 75 1014.9
20260506103003 10 58 3.2 16.1 0.00 0.00 0.00 73 1014.8
20260506101504 10 358 6.4 20.9 0.00 0.00 0.00 70 1014.7
20260506100004 10 15 6.4 22.5 0.00 0.00 0.00 68 1014.6
20260506094505 10 327 4.8 14.5 0.00 0.00 0.00 69 1014.5
20260506093004 10 15 4.8 24.1 0.00 0.00 0.00 69 1014.6
20260506090003 10 344 6.4 20.9 0.00 0.00 0.00 72 1014.5
20260506084504 9 346 11.3 22.5 0.00 0.00 0.00 74 1014.6
20260506083004 8 346 9.7 22.5 0.00 0.00 0.00 75 1014.5
20260506081504 8 345 11.3 22.5 0.00 0.00 0.00 74 1014.5
20260506073005 8 18 8.0 22.5 0.00 0.00 0.00 76 1014.4
20260506071505 8 12 8.0 19.3 0.00 0.00 0.00 78 1014.5
20260506061504 7 355 9.7 19.3 0.00 0.00 0.00 80 1014.3
20260506044504 7 28 3.2 9.7 0.00 0.00 0.00 83 1014.1
20260506043004 6 346 3.2 4.8 0.00 0.00 0.00 83 1014.1
20260506041504 7 19 3.2 12.9 0.00 0.00 0.00 82 1014.2
20260506033005 7 1 4.8 11.3 0.00 0.00 0.00 82 1014.1
20260506030004 7 358 6.4 14.5 0.00 0.00 0.00 82 1014.3
20260506024504 7 13 4.8 12.9 0.00 0.00 0.00 82 1014.3
20260506023004 7 16 4.8 16.1 0.00 0.00 0.00 81 1014.4
20260506021504 7 15 8.0 14.5 0.00 0.00 0.00 81 1014.3
20260506014504 7 334 8.0 14.5 0.00 0.00 0.00 81 1014.4
20260506013004 7 9 3.2 12.9 0.00 0.00 0.00 80 1014.4
20260506011503 7 19 4.8 19.3 0.00 0.00 0.00 80 1014.3
20260506010004 8 19 6.4 16.1 0.00 0.00 0.00 80 1014.3
20260506004504 8 69 8.0 14.5 0.00 0.00 0.00 80 1014.5
20260506003004 8 351 6.4 14.5 0.00 0.00 0.00 81 1014.6
20260506001504 8 1 6.4 12.9 0.00 0.00 0.00 82 1014.5
20260506000003 8 351 3.2 12.9 0.00 0.00 0.00 82 1014.5
20260505234504 8 357 4.8 11.3 0.00 0.00 0.00 81 1014.6
20260505233004 8 1 3.2 14.5 0.00 0.00 0.00 80 1014.7
20260505231504 8 21 4.8 11.3 0.00 0.00 0.00 79 1014.7
20260505224504 9 30 3.2 11.3 0.00 0.00 0.00 77 1014.8
20260505221504 9 32 4.8 22.5 0.00 0.00 0.00 79 1014.7
20260505220005 10 56 4.8 19.3 0.00 0.00 0.00 79 1014.6
20260505214504 10 308 3.2 9.7 0.00 0.00 0.00 81 1014.6
20260505213004 10 35 4.8 16.1 0.00 0.00 0.00 80 1014.6
20260505211504 10 43 4.8 20.9 0.00 0.00 0.00 80 1014.4
20260505210004 10 60 4.8 16.1 0.00 0.00 0.00 80 1014.3
20260505204504 10 42 1.6 12.9 0.00 0.00 0.00 80 1014.4
20260505203004 10 49 3.2 12.9 0.00 0.00 0.00 79 1014.3
20260505200004 11 345 3.2 14.5 0.00 0.00 0.00 76 1014.1
20260505194504 11 348 4.8 14.5 0.00 0.00 0.00 75 1013.7
20260505191503 11 75 3.2 16.1 0.00 0.00 0.00 75 1013.4
20260505184503 12 86 3.2 12.9 0.00 0.00 0.00 74 1012.9
20260505183029 13 50 4.8 14.5 0.00 0.00 0.00 73 1012.8
20260505181504 13 286 3.2 12.9 0.00 0.00 0.00 73 1012.8
20260505180004 13 337 4.8 16.1 0.00 0.00 0.00 72 1012.7
20260505174504 14 22 6.4 16.1 0.00 0.00 0.00 64 1012.7
20260505173005 14 10 4.8 14.5 0.00 0.00 0.00 64 1012.7
20260505164504 15 341 8.0 19.3 0.00 0.00 0.00 62 1012.6
20260505163004 15 356 8.0 16.1 0.00 0.00 0.00 60 1012.6
20260505161504 15 34 9.7 20.9 0.00 0.00 0.00 61 1012.6
20260505153004 15 349 8.0 16.1 0.00 0.00 0.00 64 1012.9
20260505151504 15 330 4.8 19.3 0.00 0.00 0.00 65 1012.8